Back to catalog

ORBCOMM FM 23

AliveCommunicationsLEO
NORAD 25477·PAYLOAD·🇺🇸 United States

Launched Sep 23, 1998 from Cape Canaveral Space Force Station

Loading…

Next Passes (next 24 hours)

TLE

FreshSource: Space-Track

Epoch: Sep 14, 2026, 08:13 UTC

1 25477U 98053C   26257.34246295  .00000452  00000-0  19257-3 0  9995
2 25477  45.0076 278.2220 0004051 299.1788  60.8655 14.38577009462776

Track ORBCOMM FM 23 in real time with AllMySat

Download on the App Store